Location: Observatorio Ernesto Juarez Davis
(29.2175°N, 110.7606°W)
Time: 22:04:26
(UTC-07:00)

Hubble Space Telescope - Visible Passes

Search period start: 20 July 2019 00:00
Search period end: 30 July 2019 00:00
Orbit: 536 x 540 km, 28.5° (Epoch: 19 July)

Date Brightness Start Highest point End Pass type
(mag) Time Alt. Az. Time Alt. Az. Time Alt. Az.
26 Jul 1.7 05:02:04 10° SW 05:05:53 37° SSE 05:09:43 10° E visible
27 Jul 3.5 03:16:44 11° ESE 03:16:44 11° ESE 03:16:56 10° ESE visible
27 Jul 1.4 04:52:04 14° SW 04:55:19 45° SSE 04:59:16 10° E visible
28 Jul 3.6 03:06:43 11° ESE 03:06:43 11° ESE 03:06:52 10° ESE visible
28 Jul 1.1 04:42:02 19° WSW 04:44:45 53° SSE 04:48:47 10° E visible
29 Jul 0.9 04:32:00 25° WSW 04:34:12 61° S 04:38:17 10° E visible
